Regional Weather Roundup
Issued by NWS

Home | Current Version | Previous Version | Graphics & Text | Print | Product List | Glossary Off
Versions: 1 2 3 4 5 6 7 8 9 10 11 12 13 14 15 16 17 18 19 20 21 22 23 24 25 26 27 28 29 30 31 32 33 34 35 36 37 38 39 40 41 42 43 44 45 46 47 48 49 50

000
ASUS43 KTOP 290308
RWRKS

WEATHER ROUNDUP FOR KANSAS
NATIONAL WEATHER SERVICE GOODLAND KS
1000 PM CDT THU MAY 28 2015

NOTE:  "FAIR" INDICATES FEW OR NO CLOUDS BELOW 12,000 FEET WITH NO
SIGNIFICANT WEATHER AND/OR OBSTRUCTIONS TO VISIBILITY.

KSZ001>006-013>018-027>032-041>047-290400-
NORTHWEST KANSAS

CITY           SKY/WX    TMP DP  RH WIND       PRES   REMARKS
GOODLAND       CLOUDY    57  51  80 E8        30.00S
HAYS           CLOUDY    61  52  72 E3        29.96F
HILL CITY      LGT RAIN  59  55  87 W3        29.95F
RUSSELL        HVY RAIN  61  56  83 W20G26    29.99R
$$

KSZ061>065-074>080-084>089-290400-
SOUTHWEST KANSAS

CITY           SKY/WX    TMP DP  RH WIND       PRES   REMARKS
DODGE CITY     LGT RAIN  59  56  89 NE13      29.99R FOG
ELKHART          N/A     63  50  63 W14         N/A
GARDEN CITY    CLOUDY    58  56  93 E7        29.97R
GREAT BEND     CLOUDY    61  54  77 N14       29.97F
LIBERAL        CLOUDY    63  52  67 W6        29.85F
PRATT          CLOUDY    63  54  72 N20G32    30.00R
$$

KSZ066>073-081>083-090>101-290400-
SOUTHEAST KANSAS

CITY           SKY/WX    TMP DP  RH WIND       PRES   REMARKS
CHANUTE        PTCLDY    67  65  93 SE5       29.99R
COFFEYVILLE    PTCLDY    69  67  93 E3        29.99R
HUTCHINSON     CLOUDY    71  64  78 SE6       29.93R
MEDICINE LODGE   N/A     74  65  73 S7        29.92R
NEWTON         MOCLDY    68  61  77 SE6       29.96R
PARSONS        FAIR      67  67 100 CALM      30.00R
WICHITA INTL   MOCLDY    73  66  78 SE9       29.94R
WICHITA JABRA  MOCLDY    69  64  84 SE5       29.95R
WICHITA MCCONL MOCLDY    72  66  81 SE9       29.95R
WINFIELD       MOCLDY    71  68  90 SE6       29.97R
$$

KSZ007>012-019>026-033>040-048>060-102>105-290400-
NORTHEAST KANSAS

CITY           SKY/WX    TMP DP  RH WIND       PRES   REMARKS
CONCORDIA      CLOUDY    68  63  84 S6        29.93R
EMPORIA        MOCLDY    68  64  87 SE8       29.97R
LAWRENCE       MOCLDY    66  62  87 E7        29.97S
MANHATTAN      CLOUDY    71  64  78 SE5       29.94R
MARYSVILLE     CLOUDY    68  64  88 SE6       29.94R
OLATHE IND     MOCLDY    66  64  93 SE6       30.00R
OLATHE EXE     MOCLDY    67  64  90 SE7       29.99R
SALINA         CLOUDY    71  64  78 SE5       29.93R
TOPEKA BILLARD MOCLDY    68  64  87 SE7       29.97R
TOPEKA FORBES  CLOUDY    68  64  87 SE6       29.97R
$$


USA.gov is the U.S. government's official web portal to all federal, state and local government web resources and services.